CAPE
42 30 24 13 1 4 4 7 0 76 17 0 0 3 3 1 2 0 0 1 1 1 3 0 4 0 0 0 0 0 0 4 1 0 0 0 1 1 3 4 0 0 0 0
40 31 11 9 0 4 10 3 0 32 36 1 1 16 2 11 2 1 1 0 0 0 0 0 2 4 0 0 0 1 0 2 0 0 0 0 0 0 0 0 0 0 1 0
27 23 8 5 0 3 10 1 3 6 5 12 1 4 0 8 12 0 0 0 0 0 3 1 2 2 0 0 0 0 1 1 0 0 0 0 0 0 0 0 0 0 0 0
29 10 11 6 0 3 8 0 1 1 0 13 7 6 1 4 0 0 0 0 0 0 0 3 1 1 1 0 0 0 0 1 1 0 0 1 1 0 0 0 0 0 0 0
30 4 24 2 0 0 2 1 0 1 19 3 1 0 3 3 0 0 0 0 0 0 0 0 3 3 1 0 0 3 2 0 1 1 1 0 0 0 0 1 2 1 2 0
31 16 7 2 8 0 3 1 2 1 3 7 9 5 7 3 1 0 0 0 0 0 0 0 1 3 0 4 6 4 4 0 0 0 0 0 0 0 1 2 3 1 1 0
25 21 0 10 25 20 14 6 2 1 0 2 5 0 4 5 6 1 0 0 0 0 0 0 0 0 0 0 0 4 5 5 1 1 0 0 0 0 0 1 0 1 1 0
22 11 0 11 28 31 6 7 2 2 0 4 2 11 6 24 2 11 0 0 6 0 0 0 4 2 2 1 2 0 8 7 6 2 1 0 0 0 0 0 0 0 0 0
22 4 0 0 5 0 1 0 1 2 0 2 7 3 15 11 7 1 3 1 8 0 3 1 0 2 1 3 0 1 2 3 2 3 1 0 0 0 0 0 0 0 0 0
3 3 0 0 1 0 1 0 2 1 2 8 11 10 4 11 7 13 7 4 12 1 3 2 2 0 1 1 3 1 2 1 0 0 1 0 0 0 0 0 0 0 0 0
6 6 5 12 4 2 0 0 1 0 2 0 2 8 19 7 20 16 2 0 3 1 3 3 1 1 5 0 6 0 0 0 0 1 0 0 0 0 0 0 0 0 0 0
10 11 11 14 5 5 5 2 0 1 1 2 12 16 12 5 5 16 8 15 1 5 4 0 2 2 9 1 5 0 1 0 0 0 0 0 0 0 0 0 0 0 0 0
10 14 3 3 8 4 9 2 0 1 1 7 7 13 9 1 1 3 13 0 0 0 2 5 1 6 8 9 2 6 0 0 0 1 2 0 0 0 0 0 0 0 0 0
7 16 9 17 16 7 5 3 0 1 0 0 15 0 0 0 0 0 2 7 0 1 1 10 1 3 5 3 1 0 4 0 0 0 0 0 0 0 0 0 0 0 0 0
6 10 11 10 15 7 1 0 0 0 1 1 3 2 0 0 0 0 0 0 0 2 5 1 3 8 2 4 0 0 0 0 0 6 0 0 0 0 0 0 0 0 0 0
7 7 9 17 19 9 0 3 1 2 2 0 1 4 0 0 0 1 3 14 5 6 2 2 15 24 16 9 2 0 0 0 0 0 0 0 0 0 0 0 0 0 0 0
1 4 11 20 14 5 1 0 1 1 1 0 5 1 0 0 2 4 1 4 3 7 5 3 9 10 4 5 0 0 0 0 0 0 0 0 0 0 0 0 0 0 0 0
1 1 11 14 12 2 1 0 1 0 0 2 0 0 1 0 6 4 1 6 4 5 5 23 15 11 6 1 0 0 0 0 0 0 0 0 0 0 0 0 0 0 0 0
0 0 0 3 0 2 0 0 1 0 1 3 3 0 2 0 1 3 0 3 2 5 1 4 0 1 0 0 0 0 0 0 0 0 0 0 0 0 0 0 0 0 0 0
0 0 1 1 1 0 0 1 0 5 0 2 2 2 2 0 3 6 3 2 2 1 0 0 0 1 0 0 0 0 0 0 0 0 0 0 0 0 0 0 0 0 0 0
0 1 0 0 0 0 1 1 1 2 0 1 3 0 9 0 1 2 0 1 1 0 0 0 1 1 0 0 0 0 0 0 0 0 0 0 0 0 0 0 0 0 0 0
1 1 1 0 0 1 1 0 0 0 0 2 1 2 4 3 0 1 0 1 0 1 0 1 0 0 0 0 0 0 0 0 0 0 0 0 0 0 0 0 0 0 0 0
2 1 1 0 0 0 0 0 2 1 0 0 0 0 0 0 0 0 0 0 0 0 2 0 0 0 0 0 0 0 0 0 0 0 0 0 0 0 0 0 0 0 0 0
0 0 0 0 1 0 0 0 0 1 0 0 0 0 0 0 0 0 0 0 0 1 0 0 0 0 0 0 0 0 0 0 0 0 0 0 0 0 0 0 0 0 0 0
0 0 0 2 0 0 0 0 0 0 0 1 0 0 0 0 0 0 0 0 1 0 0 0 0 0 0 0 0 0 0 0 0 0 0 0 0 0 0 0 0 0 0 0
0 0 0 0 0 2 0 0 0 1 1 0 0 0 0 1 0 0 0 0 0 0 0 0 0 0 0 0 0 0 0 0 0 0 0 0 0 0 0 0 0 0 0 0
0 0 0 0 0 1 2 0 1 0 0 1 0 0 1 0 1 0 1 0 0 0 0 0 0 0 0 0 0 0 0 0 0 0 0 0 0 0 0 0 0 0 0 0
CIN
-0 -0 -0 -1 -0 -0 -2 0 0 -0 -2 -0 0 -1 -5 -0 -1 0 0 -1 -1 -0 -1 -1 -0 -1 -1 -0 0 -1 -0 -0 0 0 0 0 -2 -1 -1 -0 0 -0 0 0
-0 -0 -0 -0 0 -1 -0 0 0 -2 -2 0 -2 -0 -2 0 -1 -1 -0 -0 -1 0 -1 -0 -2 -1 -0 0 0 -2 0 -0 0 0 0 -1 -1 0 -1 0 0 0 -0 0
-0 -0 -0 -0 0 -0 -0 0 -1 -6 -2 -0 -0 -2 0 0 -1 0 -0 0 0 0 -0 -1 -0 -0 0 0 0 0 -1 -0 0 0 0 -1 0 0 0 0 0 0 0 -0
-0 -0 -0 -0 0 -0 -0 0 -1 0 -1 -0 -1 -1 0 -0 -0 -0 0 0 0 -1 -0 -0 -0 -0 -2 0 0 0 -1 0 -0 -0 -1 -0 -0 0 0 0 0 0 0 0
-0 -0 -0 -0 0 0 -1 0 0 0 -0 -9 -0 0 -0 -0 0 0 0 0 0 0 0 -0 -0 -0 -1 -2 -0 -0 -1 0 -0 0 -0 -0 0 0 0 0 0 0 0 0
-0 0 -0 -0 -0 0 0 -0 -0 0 0 -0 -1 -0 -1 -3 -0 0 0 0 0 0 0 -0 -1 -0 -0 -3 -1 0 0 0 -0 0 0 0 0 0 0 0 0 -0 0 0
-0 -0 -0 0 -0 -0 -0 -0 0 0 0 -0 -1 -0 -1 -2 -2 -4 0 0 0 -0 0 0 0 0 -2 0 0 -1 -0 -0 -0 -0 0 0 0 0 0 0 -0 -0 0 -0
-0 -0 0 -0 0 -0 -0 -0 0 0 0 0 -12 -1 -3 -1 -2 -1 0 0 -1 0 0 -0 0 -0 0 0 -0 -0 -1 0 -1 0 -0 0 0 0 0 0 0 0 0 -1
-0 -0 0 0 -0 -3 0 0 0 0 0 -0 -0 -1 -0 -1 -1 -0 -0 -2 0 -0 -1 -1 0 -0 -1 -2 0 -0 -0 0 -0 -1 0 0 -1 0 0 0 0 0 0 0
-0 -0 -0 0 -0 0 -0 0 0 0 0 -2 -1 -1 -1 -1 -1 -0 -1 -0 0 -3 -1 -0 -2 -1 -1 -0 -4 0 0 -1 0 0 -0 0 0 0 0 -0 0 0 0 0
-0 -0 0 -0 -0 -0 0 0 0 0 0 -5 -27 -5 -0 -0 -0 -0 -1 -2 -5 -0 -0 -0 -1 -3 -3 -1 -1 0 0 -0 0 0 0 0 0 0 0 0 0 0 0 0
-0 0 -0 -0 0 -0 -0 0 -0 0 0 -0 -13 -17 -25 -18 -14 -4 -18 -0 -1 -0 -0 0 -0 -11 -0 -1 -1 0 -1 0 0 0 0 0 0 0 0 0 0 0 0 0
-0 -0 -1 -1 -0 -0 -0 -0 0 0 0 -9 -21 -4 -27 -50 -41 -44 -1 0 0 0 -7 -1 -0 0 -1 -1 -0 -1 0 0 0 -2 -6 0 0 0 0 0 0 0 0 0
-0 -1 -0 -0 -0 -0 0 -0 0 0 0 -1 -1 0 0 0 0 -15 -14 -10 0 -4 -2 -0 -1 -0 -3 -1 -5 0 -4 0 0 0 0 -1 0 0 0 0 0 0 0 0
0 -0 -0 -0 -0 -0 0 -0 0 0 0 -1 -0 -3 0 0 0 0 0 -4 0 -4 0 -0 -1 -0 -1 -1 -7 -0 0 0 0 -2 0 0 0 0 0 0 0 0 0 0
-0 -0 -0 -0 -1 -1 -1 -6 0 0 0 0 0 -6 0 0 0 -8 -14 0 -0 -1 0 -6 -1 -2 -1 -0 0 0 0 0 0 0 0 0 0 0 0 0 0 0 0 0
-0 -0 -0 -0 -3 -2 0 0 0 0 0 0 -1 -0 0 0 -6 -1 0 -0 -0 0 -0 -0 -0 -0 -5 -1 0 0 0 0 0 0 0 0 0 0 0 0 0 0 0 0
-0 -0 -1 -3 -2 -1 0 0 0 0 0 -0 -0 -1 0 0 0 -0 0 -0 -0 -0 -2 -1 -1 -3 -2 -1 0 0 0 0 0 0 0 0 0 0 0 0 0 0 0 0
0 0 -0 -0 -0 0 0 0 0 0 0 0 -0 0 -1 0 -1 -0 -2 -0 0 0 -0 -0 0 -0 -1 0 0 0 0 0 0 0 0 0 0 0 0 0 0 0 0 0
0 0 0 -3 -3 0 0 -0 -0 -2 0 -3 -0 -4 0 -0 -0 -0 -1 -2 0 0 0 0 0 0 0 0 0 0 0 0 0 0 0 0 0 0 0 0 0 0 0 0
-0 -0 0 0 0 0 0 -1 -3 -1 -1 -0 -1 -1 -0 0 0 0 0 -0 0 0 0 0 -0 0 0 0 0 0 0 0 0 0 0 0 0 0 0 0 0 0 0 0
-0 -1 0 0 0 0 -2 0 0 -1 -2 -1 -0 -0 -1 -4 0 -1 0 0 0 0 0 0 0 0 0 0 0 0 0 0 0 0 0 0 0 0 0 0 0 0 0 0
-2 0 0 0 0 0 -1 -0 -0 -0 -0 0 0 0 0 -7 0 0 0 0 0 0 0 0 0 0 0 0 0 0 0 0 0 0 0 0 0 0 0 0 0 0 0 0
-0 0 0 0 0 0 0 0 0 0 0 0 0 0 0 0 0 0 0 0 0 0 0 0 0 0 0 0 0 0 0 0 0 0 0 0 0 0 0 0 0 0 0 0
0 0 0 0 0 0 0 0 0 0 0 0 0 0 0 -6 0 0 0 0 0 0 0 0 0 0 0 0 0 0 0 0 0 0 0 0 0 0 0 0 0 0 0 0
0 0 0 0 0 -0 0 0 0 0 0 0 0 0 0 -11 -0 -0 0 0 0 0 0 0 0 0 0 0 0 0 0 0 0 0 0 0 0 0 0 0 0 0 0 0
-4 -7 0 0 0 0 0 0 0 0 0 0 0 0 -2 0 -0 -0 0 0 0 0 0 0 0 0 0 0 0 0 0 0 0 0 0 0 0 0 0 0 0 0 0 0
Wind_Speed
34 30 24 21 22 24 11 9 15 9 12 25 28 29 20 22 21 14 12 11 15 16 15 15 16 16 16 14 12 11 14 17 22 21 21 17 13 14 7 14 20 19 31 33
32 28 10 18 22 24 5 13 12 16 21 23 27 23 17 18 20 14 14 14 14 12 12 14 14 12 13 13 12 12 11 19 20 18 19 17 13 4 7 11 16 21 25 28
31 27 17 19 21 23 6 10 14 19 21 22 24 23 19 19 15 12 8 9 9 11 10 12 12 11 15 15 17 16 13 22 23 22 23 23 12 8 6 10 14 22 22 31
28 25 19 18 15 15 11 10 20 20 25 23 19 19 18 17 15 12 12 12 13 13 18 16 16 14 14 16 17 17 19 26 26 24 29 26 21 13 9 11 16 17 24 23
26 18 17 16 13 12 15 8 14 15 23 23 18 17 18 19 15 14 14 14 13 16 16 19 20 20 19 19 17 17 18 23 25 28 26 19 12 10 12 13 10 9 8 11
23 12 17 14 15 10 10 10 12 17 20 23 22 19 18 17 11 13 12 12 14 16 16 16 17 18 18 18 19 15 16 22 23 25 25 30 20 19 26 13 8 6 3 11
21 21 19 16 16 11 8 11 12 16 19 22 22 20 18 18 17 13 12 12 15 15 15 15 17 19 22 23 22 13 22 24 22 25 25 15 21 15 22 7 10 8 5 2
20 20 17 16 15 13 12 15 16 16 18 22 21 21 17 9 9 9 9 11 12 12 14 17 20 21 23 25 26 29 28 22 22 22 23 19 3 18 20 19 13 21 5 7
8 19 15 15 16 14 13 12 16 16 16 22 21 18 14 10 12 13 12 13 11 14 16 18 21 22 22 21 20 22 31 20 25 21 21 12 18 23 19 16 12 25 5 6
18 20 18 17 17 15 14 15 14 15 16 18 19 15 15 14 12 13 11 14 16 14 18 21 23 25 23 23 23 19 18 20 26 23 22 17 11 17 16 18 10 6 7 6
5 23 21 19 17 16 15 17 15 13 15 17 17 19 17 11 20 16 13 15 17 17 21 22 23 26 24 24 23 19 18 12 10 14 21 18 13 11 21 20 6 10 10 11
12 25 24 21 19 17 15 17 15 16 16 17 16 18 19 17 15 10 13 18 15 16 20 22 22 24 22 25 24 22 23 15 18 22 16 16 8 12 17 14 20 19 11 12
13 25 24 24 22 19 17 18 16 15 15 14 14 15 17 17 15 17 22 22 21 20 21 21 23 26 22 25 28 25 26 25 25 18 13 13 19 16 15 20 23 22 16 10
13 27 26 24 23 22 21 20 20 18 17 18 16 16 17 17 17 18 20 23 19 20 21 25 25 25 22 26 25 26 22 18 21 18 18 12 18 23 20 18 20 19 18 10
15 29 28 27 26 24 24 25 23 22 15 17 19 20 18 19 21 20 17 18 16 21 23 24 25 25 24 26 27 32 29 28 18 14 20 21 22 22 20 18 18 16 14 12
16 30 29 28 27 24 20 19 16 8 8 19 19 18 20 21 22 23 17 16 15 21 23 25 25 24 26 26 26 26 28 30 28 18 21 20 19 19 19 16 15 14 13 12
16 29 29 29 28 27 22 19 13 13 18 19 20 20 18 18 18 18 18 18 19 21 23 24 26 22 26 30 37 30 23 22 12 15 12 13 13 17 14 14 12 12 13 11
8 24 23 24 22 22 24 20 18 6 12 16 20 20 20 17 18 19 17 17 16 19 20 20 23 23 27 29 31 31 30 30 11 15 16 20 12 12 10 10 10 11 11 10
11 19 16 15 18 17 17 20 17 8 15 20 21 20 19 17 19 19 18 18 17 18 23 23 21 25 27 27 26 24 23 17 16 14 14 9 8 7 7 8 8 7 9 9
14 15 18 17 16 19 17 11 12 12 17 20 23 21 19 18 18 18 18 18 18 19 21 20 24 29 33 32 25 21 18 16 12 12 11 6 5 4 4 6 6 7 8 7
15 15 17 18 19 15 15 16 17 17 21 21 21 22 23 18 19 19 18 18 17 18 18 19 19 20 18 19 21 22 20 19 17 20 18 4 5 4 3 4 5 7 9 9
11 18 17 17 17 17 18 19 18 20 21 19 19 19 19 18 17 18 18 18 18 19 17 18 18 18 19 22 22 19 19 18 14 16 13 6 5 6 6 7 8 8 8 9
15 11 15 15 16 20 21 21 18 20 18 18 18 18 18 18 17 19 18 18 19 18 18 18 18 20 21 21 19 17 15 13 13 12 9 7 5 5 7 10 8 8 8 9
14 13 15 4 17 20 20 20 19 17 19 20 19 19 18 18 19 19 20 19 18 18 18 18 19 21 21 20 18 16 14 13 12 11 8 6 5 4 5 6 7 8 8 8
12 11 10 14 19 19 19 19 18 18 19 20 19 20 19 19 20 19 20 19 19 18 18 19 21 22 20 19 18 17 15 14 13 12 10 7 4 2 2 2 4 6 8 8
11 10 9 9 7 23 21 21 21 19 20 19 20 21 21 22 20 20 21 20 20 18 19 21 22 20 20 19 19 18 16 14 12 11 9 6 4 2 2 3 4 5 5 5
11 10 8 9 8 9 20 22 22 22 23 22 20 23 22 18 20 22 19 21 22 25 26 26 25 24 23 22 20 18 16 14 12 10 8 6 3 1 1 2 2 3 3 4
Wind_Direction
9 13 20 302 303 307 300 100 242 261 205 196 200 201 214 204 202 227 237 237 232 219 211 226 236 241 266 254 262 266 282 296 292 299 302 308 300 315 287 316 325 315 313 279
13 19 330 303 308 313 313 63 233 223 213 198 200 202 211 207 208 231 234 235 236 215 210 234 247 251 264 259 261 277 285 292 302 313 316 310 317 241 270 285 289 287 305 306
18 24 305 307 310 317 74 130 211 201 208 203 200 198 210 203 212 234 244 238 225 217 227 256 249 260 264 266 267 283 288 285 287 294 297 293 333 331 291 294 304 290 288 280
22 28 305 309 312 324 113 208 182 195 203 199 196 210 207 203 217 242 245 241 238 234 243 252 259 262 272 272 278 280 284 280 289 244 240 239 233 239 271 279 278 286 289 283
25 38 304 308 312 319 121 204 208 210 193 201 201 214 218 220 229 240 249 244 244 250 254 258 255 255 265 271 276 280 295 292 267 246 239 217 224 230 254 266 283 301 299 298
29 349 302 303 309 309 160 267 220 205 203 208 216 226 228 225 227 255 263 257 255 257 264 269 275 271 272 274 276 288 301 272 263 260 283 280 331 348 344 12 22 33 47 24
32 307 303 299 305 292 215 254 221 205 212 215 221 227 229 228 243 261 279 274 267 270 279 277 273 267 267 271 276 303 270 258 280 267 280 344 329 22 358 55 47 57 179 155
34 301 293 296 297 292 264 259 211 218 222 220 225 221 234 245 269 286 302 293 291 290 279 265 258 261 263 266 267 252 245 260 269 264 269 236 27 24 284 10 52 41 206 101
10 291 280 281 289 289 284 243 231 224 223 217 224 233 243 254 266 281 292 295 300 288 279 268 259 252 254 266 273 259 219 188 254 271 296 2 6 3 30 31 101 346 222 212
281 283 278 279 284 284 280 232 242 246 244 235 228 240 243 260 271 288 292 289 278 288 271 262 260 255 262 256 252 255 255 261 195 204 240 213 193 33 53 300 229 225 136 210
21 288 276 272 275 276 271 226 233 241 249 236 239 240 249 271 216 271 286 278 275 271 265 260 262 253 259 263 253 256 259 278 315 248 210 232 45 80 321 292 141 216 169 124
31 285 278 269 267 268 262 216 228 241 241 231 247 245 248 264 282 335 286 271 285 278 266 267 266 260 264 258 247 250 249 269 258 176 161 212 93 223 242 228 265 283 60 61
23 283 272 265 265 257 248 226 231 230 275 288 287 283 276 278 293 290 264 264 266 276 279 279 271 259 270 247 240 248 237 235 230 197 172 193 251 241 11 339 305 313 279 85
15 282 277 264 257 252 245 232 225 241 258 277 290 293 287 293 302 296 286 272 281 290 279 267 266 258 259 244 249 237 246 259 223 195 221 221 359 334 348 353 333 335 327 352
7 282 273 268 260 253 248 235 230 195 200 282 276 284 293 291 285 293 300 290 295 278 267 262 258 261 258 251 250 236 239 217 176 187 322 313 320 329 345 336 344 349 356 20
3 279 268 257 248 247 248 245 269 343 14 277 258 283 276 284 287 288 294 303 293 273 266 263 264 263 252 250 248 253 252 247 237 206 315 323 328 328 344 356 343 350 11 36
3 276 264 253 244 233 242 257 273 279 295 274 264 254 275 289 299 290 288 302 285 269 263 264 261 264 252 250 236 249 267 277 330 325 349 335 355 326 349 14 4 1 12 26
4 276 260 238 236 241 243 255 261 307 327 320 259 257 272 299 268 256 275 281 284 264 266 271 260 259 250 252 252 249 261 271 312 313 310 292 339 352 351 13 2 360 27 41
259 259 238 235 239 246 260 265 278 316 309 273 261 265 272 288 271 251 242 244 260 263 233 246 255 248 247 255 264 275 291 318 321 318 307 326 343 346 332 21 16 28 44 51
239 244 233 236 242 253 262 293 296 303 295 293 264 265 272 283 275 250 259 268 258 242 238 248 248 249 253 262 285 297 314 322 321 317 327 355 359 340 0 13 37 57 55 61
116 250 241 246 250 256 273 271 273 281 269 273 270 265 266 289 266 259 261 273 275 254 261 263 269 272 292 302 298 293 292 291 293 283 297 18 337 81 44 54 47 77 81 85
152 253 257 254 250 261 262 263 271 269 263 280 275 275 276 283 292 270 267 265 266 257 273 265 277 278 294 299 298 287 275 275 292 292 300 344 60 87 68 79 90 94 91 94
109 295 264 262 263 259 259 257 269 266 283 281 280 281 283 283 291 283 279 267 266 278 273 269 271 285 293 294 291 282 282 285 290 299 333 24 46 78 90 95 93 93 96 94
76 102 138 108 268 267 270 270 274 286 286 284 283 281 288 287 285 286 275 283 287 280 278 282 293 295 291 290 284 280 288 291 296 304 336 349 36 65 79 93 99 105 106 97
72 70 115 158 277 279 279 280 281 286 292 286 288 285 289 289 285 284 283 283 280 286 289 299 304 305 307 304 299 292 291 298 300 310 324 333 343 358 34 88 102 110 108 106
68 78 79 97 147 270 276 276 278 289 288 293 290 284 283 281 286 285 278 280 281 293 299 299 300 306 311 311 311 308 305 306 313 319 327 339 353 37 87 90 106 118 120 112
56 71 57 25 43 129 282 277 280 287 281 277 285 275 276 292 284 282 286 282 286 288 291 296 300 299 301 306 312 317 319 320 322 327 330 331 341 4 89 131 125 116 101 92